Location: Mainz-Finthen
(49.9906°N, 8.1713°E)
Time: 13:39:59
(UTC+00:00)

N. Korean satellite - Pass Details

Date: 29 September 2021
Orbit: 450 x 495 km, 97.3° (Epoch: 23 October)

Event Time Altitude Azimuth Distance (km) Brightness Sun altitude
Rises 04:45:22 0° 14° (NNE) 2,538 10.5 -7.1°
Reaches altitude 10° 04:47:26 10° 17° (NNE) 1,662 9.6 -6.8°
Maximum altitude 04:51:00 71° 101° (E) 516 6.9 -6.2°
Drops below altitude 10° 04:54:36 10° 187° (S) 1,671 9.2 -5.6°
Sets 04:56:40 0° 189° (S) 2,554 10.1 -5.3°
